Time,TemperatureF,DewpointF,PressureIn,WindDirection,WindDirectionDegrees,WindSpeedMPH,WindSpeedGustMPH,Humidity,HourlyPrecipIn,Conditions,Clouds,dailyrainin,SoftwareType,DateUTC
2013-03-13 00:01:00,35.4,29.8,30.02,SE,144,0.0,7.0,80,0.00,,,0.00,Wunderground v.1.15,2013-03-13 04:01:00,
2013-03-13 00:02:00,35.3,29.7,30.02,SE,144,0.0,7.0,80,0.00,,,0.00,Wunderground v.1.15,2013-03-13 04:02:00,
2013-03-13 00:06:00,34.7,29.2,30.02,SE,144,0.0,7.0,80,0.00,,,0.00,Wunderground v.1.15,2013-03-13 04:06:00,
2013-03-13 00:12:00,34.2,29.0,30.02,SE,144,0.0,7.0,81,0.00,,,0.00,Wunderground v.1.15,2013-03-13 04:12:00,
2013-03-13 00:17:00,33.5,28.3,30.02,SE,144,0.0,7.0,81,0.00,,,0.00,Wunderground v.1.15,2013-03-13 04:17:00,
2013-03-13 00:22:00,32.6,27.7,30.02,SE,144,0.0,7.0,82,0.00,,,0.00,Wunderground v.1.15,2013-03-13 04:22:00,
2013-03-13 00:27:00,32.1,27.5,30.02,SE,144,0.0,7.0,83,0.00,,,0.00,Wunderground v.1.15,2013-03-13 04:27:00,
2013-03-13 00:33:00,31.4,27.1,30.02,SE,144,0.0,7.0,84,0.00,,,0.00,Wunderground v.1.15,2013-03-13 04:33:00,
2013-03-13 00:38:00,30.9,28.6,30.02,SE,144,0.0,7.0,91,0.00,,,0.00,Wunderground v.1.15,2013-03-13 04:38:00,
2013-03-13 00:44:00,30.4,26.7,30.02,SE,144,0.0,7.0,86,0.00,,,0.00,Wunderground v.1.15,2013-03-13 04:44:00,
2013-03-13 00:50:00,30.1,26.4,30.01,SE,144,0.0,7.0,86,0.00,,,0.00,Wunderground v.1.15,2013-03-13 04:50:00,
2013-03-13 00:55:00,30.0,26.6,30.01,SE,144,0.0,7.0,87,0.00,,,0.00,Wunderground v.1.15,2013-03-13 04:55:00,
2013-03-13 01:00:00,29.8,26.7,30.01,SE,144,0.0,0.0,88,0.00,,,0.00,Wunderground v.1.15,2013-03-13 05:00:00,
2013-03-13 01:06:00,29.7,26.6,30.01,SE,144,0.0,0.0,88,0.00,,,0.00,Wunderground v.1.15,2013-03-13 05:06:00,
2013-03-13 01:12:00,29.6,26.8,30.01,SE,144,0.0,0.0,89,0.00,,,0.00,Wunderground v.1.15,2013-03-13 05:12:00,
2013-03-13 01:17:00,29.6,27.0,30.01,SE,144,0.0,0.0,90,0.00,,,0.00,Wunderground v.1.15,2013-03-13 05:17:00,
2013-03-13 01:22:00,29.6,27.0,30.01,SE,144,0.0,0.0,90,0.00,,,0.00,Wunderground v.1.15,2013-03-13 05:22:00,
2013-03-13 01:28:00,29.6,27.3,30.00,SE,144,0.0,0.0,91,0.00,,,0.00,Wunderground v.1.15,2013-03-13 05:28:00,
2013-03-13 01:33:00,29.7,27.4,30.00,SE,144,0.0,0.0,91,0.00,,,0.00,Wunderground v.1.15,2013-03-13 05:33:00,
2013-03-13 01:39:00,29.7,27.4,30.00,SE,144,0.0,0.0,91,0.00,,,0.00,Wunderground v.1.15,2013-03-13 05:39:00,
2013-03-13 01:44:00,29.9,27.6,30.00,SE,144,0.0,0.0,91,0.00,,,0.00,Wunderground v.1.15,2013-03-13 05:44:00,
2013-03-13 01:50:00,29.9,27.9,30.01,SE,144,0.0,0.0,92,0.00,,,0.00,Wunderground v.1.15,2013-03-13 05:50:00,
2013-03-13 01:55:00,30.1,28.1,30.01,SE,144,0.0,0.0,92,0.00,,,0.00,Wunderground v.1.15,2013-03-13 05:55:00,
2013-03-13 02:00:00,30.2,28.2,30.01,SE,144,0.0,0.0,92,0.00,,,0.00,Wunderground v.1.15,2013-03-13 06:00:00,
2013-03-13 02:06:00,30.5,28.5,30.01,SE,144,0.0,2.0,92,0.00,,,0.00,Wunderground v.1.15,2013-03-13 06:06:00,
2013-03-13 02:11:00,30.7,28.9,30.01,SE,144,0.0,0.0,93,0.00,,,0.00,Wunderground v.1.15,2013-03-13 06:11:00,
2013-03-13 02:16:00,30.8,29.0,30.01,SE,144,0.0,0.0,93,0.00,,,0.00,Wunderground v.1.15,2013-03-13 06:16:00,
2013-03-13 02:21:00,31.2,29.7,30.01,SE,144,0.0,0.0,94,0.00,,,0.01,Wunderground v.1.15,2013-03-13 06:21:00,
2013-03-13 02:27:00,31.4,29.9,30.01,SE,144,0.0,0.0,94,0.00,,,0.01,Wunderground v.1.15,2013-03-13 06:27:00,
2013-03-13 02:32:00,31.6,30.1,30.01,SE,144,0.0,0.0,94,0.00,,,0.01,Wunderground v.1.15,2013-03-13 06:32:00,
2013-03-13 02:38:00,31.7,30.2,30.01,SE,144,0.0,0.0,94,0.00,,,0.02,Wunderground v.1.15,2013-03-13 06:38:00,
2013-03-13 02:43:00,31.9,30.4,30.01,SE,144,0.0,0.0,94,0.00,,,0.02,Wunderground v.1.15,2013-03-13 06:43:00,
2013-03-13 02:49:00,31.9,30.6,30.00,SE,144,0.0,0.0,95,0.05,,,0.03,Wunderground v.1.15,2013-03-13 06:49:00,
2013-03-13 02:54:00,32.0,30.7,30.01,SE,144,0.0,0.0,95,0.05,,,0.03,Wunderground v.1.15,2013-03-13 06:54:00,
2013-03-13 03:00:00,32.1,30.8,30.01,SE,144,0.0,3.0,95,0.04,,,0.03,Wunderground v.1.15,2013-03-13 07:00:00,
2013-03-13 03:05:00,32.1,30.8,30.00,South,170,0.0,3.0,95,0.00,,,0.04,Wunderground v.1.15,2013-03-13 07:05:00,
2013-03-13 03:11:00,32.2,30.9,30.00,ESE,121,0.0,3.0,95,0.17,,,0.05,Wunderground v.1.15,2013-03-13 07:11:00,
2013-03-13 03:16:00,32.1,30.8,30.00,SE,127,1.0,3.0,95,0.07,,,0.05,Wunderground v.1.15,2013-03-13 07:16:00,
2013-03-13 03:22:00,32.0,30.7,29.99,SE,128,0.0,3.0,95,0.04,,,0.05,Wunderground v.1.15,2013-03-13 07:22:00,
2013-03-13 03:27:00,31.9,30.6,29.99,SSE,151,0.0,3.0,95,0.00,,,0.05,Wunderground v.1.15,2013-03-13 07:27:00,
2013-03-13 03:32:00,31.8,30.5,29.99,SSE,152,1.0,3.0,95,0.00,,,0.05,Wunderground v.1.15,2013-03-13 07:32:00,
2013-03-13 03:38:00,31.7,30.4,29.99,SSE,167,1.0,3.0,95,0.00,,,0.05,Wunderground v.1.15,2013-03-13 07:38:00,
2013-03-13 03:44:00,31.6,30.3,29.98,SSE,167,0.0,3.0,95,0.00,,,0.05,Wunderground v.1.15,2013-03-13 07:44:00,
2013-03-13 03:50:00,31.4,30.1,29.98,SSE,167,0.0,3.0,95,0.00,,,0.05,Wunderground v.1.15,2013-03-13 07:50:00,
2013-03-13 03:55:00,31.1,29.8,29.98,SSE,167,0.0,3.0,95,0.00,,,0.05,Wunderground v.1.15,2013-03-13 07:55:00,
2013-03-13 04:01:00,30.8,29.5,29.97,SSE,167,0.0,4.0,95,0.00,,,0.05,Wunderground v.1.15,2013-03-13 08:01:00,
2013-03-13 04:08:00,30.5,29.2,29.97,SSE,167,0.0,4.0,95,0.00,,,0.05,Wunderground v.1.15,2013-03-13 08:08:00,
2013-03-13 04:13:00,30.3,29.0,29.97,SSE,167,0.0,4.0,95,0.00,,,0.05,Wunderground v.1.15,2013-03-13 08:13:00,
2013-03-13 04:18:00,30.0,28.5,29.97,SSE,167,0.0,4.0,94,0.00,,,0.05,Wunderground v.1.15,2013-03-13 08:18:00,
2013-03-13 04:24:00,29.7,28.2,29.97,SSE,167,0.0,4.0,94,0.00,,,0.05,Wunderground v.1.15,2013-03-13 08:24:00,
2013-03-13 04:29:00,29.4,27.9,29.97,SSE,167,0.0,4.0,94,0.00,,,0.05,Wunderground v.1.15,2013-03-13 08:29:00,
2013-03-13 04:34:00,29.4,28.1,29.97,SSE,167,0.0,4.0,95,0.00,,,0.05,Wunderground v.1.15,2013-03-13 08:34:00,
2013-03-13 04:39:00,29.5,28.2,29.97,SSE,167,0.0,4.0,95,0.00,,,0.05,Wunderground v.1.15,2013-03-13 08:39:00,
2013-03-13 04:45:00,29.7,28.4,29.97,SE,133,0.0,4.0,95,0.00,,,0.05,Wunderground v.1.15,2013-03-13 08:45:00,
2013-03-13 04:50:00,30.0,28.7,29.97,SSE,155,0.0,4.0,95,0.00,,,0.05,Wunderground v.1.15,2013-03-13 08:50:00,
2013-03-13 04:56:00,30.5,29.5,29.97,South,190,1.0,4.0,96,0.00,,,0.05,Wunderground v.1.15,2013-03-13 08:56:00,
2013-03-13 05:02:00,30.6,29.6,29.97,South,190,1.0,1.0,96,0.00,,,0.05,Wunderground v.1.15,2013-03-13 09:02:00,
2013-03-13 05:07:00,30.8,29.8,29.97,South,190,0.0,1.0,96,0.00,,,0.05,Wunderground v.1.15,2013-03-13 09:07:00,
2013-03-13 05:12:00,30.9,29.9,29.97,SE,140,0.0,0.0,96,0.00,,,0.05,Wunderground v.1.15,2013-03-13 09:12:00,
2013-03-13 05:17:00,31.0,30.0,29.97,SSE,152,0.0,0.0,96,0.00,,,0.05,Wunderground v.1.15,2013-03-13 09:17:00,
2013-03-13 05:23:00,31.1,30.1,29.97,SSE,152,0.0,0.0,96,0.00,,,0.05,Wunderground v.1.15,2013-03-13 09:23:00,
2013-03-13 05:28:00,30.9,29.9,29.97,SSE,152,0.0,0.0,96,0.00,,,0.05,Wunderground v.1.15,2013-03-13 09:28:00,
2013-03-13 05:34:00,30.8,29.8,29.96,SSE,152,0.0,0.0,96,0.00,,,0.05,Wunderground v.1.15,2013-03-13 09:34:00,
2013-03-13 05:39:00,30.7,29.7,29.97,SSE,152,0.0,0.0,96,0.00,,,0.05,Wunderground v.1.15,2013-03-13 09:39:00,
2013-03-13 05:44:00,30.5,29.5,29.97,SSE,152,0.0,0.0,96,0.00,,,0.05,Wunderground v.1.15,2013-03-13 09:44:00,
2013-03-13 05:49:00,30.1,29.1,29.97,SSE,152,0.0,0.0,96,0.00,,,0.05,Wunderground v.1.15,2013-03-13 09:49:00,
2013-03-13 05:55:00,29.8,28.8,29.97,SSE,152,0.0,0.0,96,0.00,,,0.05,Wunderground v.1.15,2013-03-13 09:55:00,
2013-03-13 06:01:00,29.6,28.6,29.97,SSE,152,0.0,3.0,96,0.00,,,0.05,Wunderground v.1.15,2013-03-13 10:01:00,
2013-03-13 06:06:00,29.5,28.2,29.97,SSE,152,0.0,3.0,95,0.00,,,0.05,Wunderground v.1.15,2013-03-13 10:06:00,
2013-03-13 06:11:00,29.5,28.2,29.97,SSE,152,0.0,3.0,95,0.00,,,0.05,Wunderground v.1.15,2013-03-13 10:11:00,
2013-03-13 06:17:00,29.5,28.5,29.97,SSE,152,0.0,3.0,96,0.00,,,0.05,Wunderground v.1.15,2013-03-13 10:17:00,
2013-03-13 06:22:00,29.5,28.5,29.97,SSE,152,0.0,3.0,96,0.00,,,0.05,Wunderground v.1.15,2013-03-13 10:22:00,
2013-03-13 06:28:00,29.7,28.7,29.97,SSE,152,0.0,3.0,96,0.00,,,0.05,Wunderground v.1.15,2013-03-13 10:28:00,
2013-03-13 06:33:00,29.8,28.8,29.97,SSE,152,0.0,3.0,96,0.00,,,0.05,Wunderground v.1.15,2013-03-13 10:33:00,
2013-03-13 06:38:00,30.1,29.1,29.97,SSE,152,0.0,3.0,96,0.00,,,0.05,Wunderground v.1.15,2013-03-13 10:38:00,
2013-03-13 06:44:00,30.5,29.5,29.97,South,178,0.0,3.0,96,0.00,,,0.05,Wunderground v.1.15,2013-03-13 10:44:00,
2013-03-13 06:49:00,30.6,29.6,29.97,South,178,0.0,3.0,96,0.00,,,0.05,Wunderground v.1.15,2013-03-13 10:49:00,
2013-03-13 06:54:00,30.8,29.8,29.97,South,178,0.0,3.0,96,0.00,,,0.05,Wunderground v.1.15,2013-03-13 10:54:00,
2013-03-13 07:01:00,31.0,30.2,29.97,South,169,1.0,1.0,97,0.00,,,0.05,Wunderground v.1.15,2013-03-13 11:01:00,
2013-03-13 07:07:00,31.2,30.4,29.97,South,170,0.0,1.0,97,0.00,,,0.05,Wunderground v.1.15,2013-03-13 11:07:00,
2013-03-13 07:12:00,31.4,30.6,29.97,East,91,0.0,0.0,97,0.00,,,0.05,Wunderground v.1.15,2013-03-13 11:12:00,
2013-03-13 07:18:00,31.4,30.6,29.97,North,351,1.0,2.0,97,0.00,,,0.05,Wunderground v.1.15,2013-03-13 11:18:00,
2013-03-13 07:25:00,31.5,30.7,29.97,NNE,17,1.0,4.0,97,0.00,,,0.05,Wunderground v.1.15,2013-03-13 11:25:00,
2013-03-13 07:30:00,31.5,30.7,29.97,NNW,344,1.0,4.0,97,0.00,,,0.05,Wunderground v.1.15,2013-03-13 11:30:00,
2013-03-13 07:36:00,31.5,30.5,29.98,NNW,344,1.0,2.0,96,0.00,,,0.05,Wunderground v.1.15,2013-03-13 11:36:00,
2013-03-13 07:42:00,31.5,30.5,29.98,NNW,344,0.0,0.0,96,0.00,,,0.05,Wunderground v.1.15,2013-03-13 11:42:00,
2013-03-13 07:47:00,31.5,30.5,29.98,NNW,333,1.0,2.0,96,0.00,,,0.05,Wunderground v.1.15,2013-03-13 11:47:00,
2013-03-13 07:53:00,31.5,30.2,29.98,NNW,333,1.0,1.0,95,0.00,,,0.05,Wunderground v.1.15,2013-03-13 11:53:00,
2013-03-13 07:59:00,31.5,30.2,29.98,NNW,333,1.0,1.0,95,0.00,,,0.05,Wunderground v.1.15,2013-03-13 11:59:00,
2013-03-13 08:05:00,31.5,30.2,29.98,NNW,329,0.0,6.0,95,0.00,,,0.05,Wunderground v.1.15,2013-03-13 12:05:00,
2013-03-13 08:10:00,31.5,30.0,29.99,NNW,329,0.0,6.0,94,0.00,,,0.05,Wunderground v.1.15,2013-03-13 12:10:00,
2013-03-13 08:16:00,31.4,29.9,29.98,North,355,1.0,6.0,94,0.00,,,0.05,Wunderground v.1.15,2013-03-13 12:16:00,
2013-03-13 08:21:00,31.4,29.6,29.99,West,280,2.0,2.0,93,0.00,,,0.05,Wunderground v.1.15,2013-03-13 12:21:00,
2013-03-13 08:27:00,31.4,29.3,29.99,NNE,19,1.0,6.0,92,0.00,,,0.05,Wunderground v.1.15,2013-03-13 12:27:00,
2013-03-13 08:32:00,31.5,29.2,29.99,WNW,289,1.0,6.0,91,0.00,,,0.05,Wunderground v.1.15,2013-03-13 12:32:00,
2013-03-13 08:37:00,31.6,29.0,29.99,WNW,289,0.0,6.0,90,0.00,,,0.05,Wunderground v.1.15,2013-03-13 12:37:00,
2013-03-13 08:43:00,31.6,29.0,29.98,WNW,289,0.0,6.0,90,0.00,,,0.05,Wunderground v.1.15,2013-03-13 12:43:00,
2013-03-13 08:48:00,31.7,29.1,29.98,WNW,289,0.0,6.0,90,0.00,,,0.05,Wunderground v.1.15,2013-03-13 12:48:00,
2013-03-13 08:54:00,32.2,29.6,29.99,WNW,288,0.0,6.0,90,0.00,,,0.05,Wunderground v.1.15,2013-03-13 12:54:00,
2013-03-13 09:00:00,32.6,29.7,30.00,SSW,211,0.0,6.0,89,0.00,,,0.05,Wunderground v.1.15,2013-03-13 13:00:00,
2013-03-13 09:06:00,32.8,29.9,30.00,SW,225,1.0,6.0,89,0.00,,,0.05,Wunderground v.1.15,2013-03-13 13:06:00,
2013-03-13 09:11:00,32.9,29.7,30.00,NNW,347,1.0,6.0,88,0.00,,,0.05,Wunderground v.1.15,2013-03-13 13:11:00,
2013-03-13 09:16:00,32.9,29.5,30.00,SSE,165,1.0,6.0,87,0.00,,,0.05,Wunderground v.1.15,2013-03-13 13:16:00,
2013-03-13 09:22:00,32.9,29.5,30.00,NW,315,0.0,6.0,87,0.00,,,0.05,Wunderground v.1.15,2013-03-13 13:22:00,
2013-03-13 09:28:00,32.9,29.5,30.00,SE,132,1.0,6.0,87,0.00,,,0.05,Wunderground v.1.15,2013-03-13 13:28:00,
2013-03-13 09:33:00,32.8,29.4,30.00,SE,143,1.0,6.0,87,0.00,,,0.05,Wunderground v.1.15,2013-03-13 13:33:00,
2013-03-13 09:38:00,32.9,29.5,30.00,West,264,2.0,6.0,87,0.00,,,0.05,Wunderground v.1.15,2013-03-13 13:38:00,
2013-03-13 09:43:00,32.9,29.5,30.00,SSE,161,2.0,6.0,87,0.00,,,0.05,Wunderground v.1.15,2013-03-13 13:43:00,
2013-03-13 09:49:00,33.0,29.3,30.00,South,171,2.0,6.0,86,0.00,,,0.05,Wunderground v.1.15,2013-03-13 13:49:00,
2013-03-13 09:55:00,33.4,29.4,30.00,South,186,2.0,6.0,85,0.00,,,0.05,Wunderground v.1.15,2013-03-13 13:55:00,
2013-03-13 10:01:00,33.5,29.2,30.00,WSW,245,3.0,3.0,84,0.00,,,0.05,Wunderground v.1.15,2013-03-13 14:01:00,
2013-03-13 10:06:00,33.7,29.1,30.01,South,178,3.0,4.0,83,0.00,,,0.05,Wunderground v.1.15,2013-03-13 14:06:00,
2013-03-13 10:11:00,33.9,29.3,30.00,SE,145,2.0,4.0,83,0.00,,,0.05,Wunderground v.1.15,2013-03-13 14:11:00,
2013-03-13 10:16:00,34.2,29.6,30.00,WSW,237,3.0,13.0,83,0.00,,,0.05,Wunderground v.1.15,2013-03-13 14:16:00,
2013-03-13 10:22:00,34.2,29.3,30.00,SSW,199,3.0,4.0,82,0.00,,,0.05,Wunderground v.1.15,2013-03-13 14:22:00,
2013-03-13 10:27:00,34.3,29.4,30.00,SW,223,3.0,7.0,82,0.00,,,0.05,Wunderground v.1.15,2013-03-13 14:27:00,
2013-03-13 10:32:00,34.2,29.3,30.00,SSE,154,4.0,7.0,82,0.00,,,0.05,Wunderground v.1.15,2013-03-13 14:32:00,
2013-03-13 10:38:00,34.2,29.3,30.00,WNW,296,3.0,7.0,82,0.00,,,0.05,Wunderground v.1.15,2013-03-13 14:38:00,
2013-03-13 10:43:00,34.3,29.7,30.00,SSE,153,3.0,8.0,83,0.00,,,0.05,Wunderground v.1.15,2013-03-13 14:43:00,
2013-03-13 10:49:00,34.4,29.8,30.01,SSW,207,3.0,8.0,83,0.00,,,0.05,Wunderground v.1.15,2013-03-13 14:49:00,
2013-03-13 10:55:00,34.4,29.5,30.01,West,264,3.0,5.0,82,0.00,,,0.05,Wunderground v.1.15,2013-03-13 14:55:00,
2013-03-13 11:01:00,34.3,29.7,30.01,SE,146,3.0,16.0,83,0.00,,,0.05,Wunderground v.1.15,2013-03-13 15:01:00,
2013-03-13 11:06:00,34.0,29.4,30.01,WSW,239,3.0,16.0,83,0.00,,,0.05,Wunderground v.1.15,2013-03-13 15:06:00,
2013-03-13 11:11:00,33.9,29.6,30.01,South,183,3.0,16.0,84,0.00,,,0.05,Wunderground v.1.15,2013-03-13 15:11:00,
2013-03-13 11:16:00,33.9,29.6,30.01,ESE,108,3.0,16.0,84,0.00,,,0.05,Wunderground v.1.15,2013-03-13 15:16:00,
2013-03-13 11:21:00,33.6,29.9,30.01,SE,136,2.0,16.0,86,0.00,,,0.05,Wunderground v.1.15,2013-03-13 15:21:00,
2013-03-13 11:27:00,33.2,29.8,30.01,SSE,164,3.0,16.0,87,0.00,,,0.05,Wunderground v.1.15,2013-03-13 15:27:00,
2013-03-13 11:32:00,33.4,30.5,30.01,South,190,3.0,16.0,89,0.00,,,0.05,Wunderground v.1.15,2013-03-13 15:32:00,
2013-03-13 11:38:00,33.8,30.6,30.01,SE,125,3.0,16.0,88,0.00,,,0.05,Wunderground v.1.15,2013-03-13 15:38:00,
2013-03-13 11:43:00,34.2,30.7,30.01,South,171,4.0,16.0,87,0.00,,,0.05,Wunderground v.1.15,2013-03-13 15:43:00,
2013-03-13 11:49:00,34.2,31.0,30.01,South,175,4.0,16.0,88,0.00,,,0.05,Wunderground v.1.15,2013-03-13 15:49:00,
2013-03-13 11:54:00,34.4,31.2,30.01,ENE,63,2.0,16.0,88,0.00,,,0.05,Wunderground v.1.15,2013-03-13 15:54:00,
2013-03-13 12:00:00,34.9,31.4,30.01,NW,323,3.0,11.0,87,0.00,,,0.05,Wunderground v.1.15,2013-03-13 16:00:00,
2013-03-13 12:06:00,35.7,31.6,30.00,WNW,296,4.0,11.0,85,0.00,,,0.05,Wunderground v.1.15,2013-03-13 16:06:00,
2013-03-13 12:11:00,35.4,30.5,30.00,SSE,163,4.0,11.0,82,0.00,,,0.05,Wunderground v.1.15,2013-03-13 16:11:00,
2013-03-13 12:17:00,35.3,30.7,30.02,WNW,294,4.0,11.0,83,0.00,,,0.05,Wunderground v.1.15,2013-03-13 16:17:00,
2013-03-13 12:22:00,33.7,30.2,30.02,NW,316,6.0,11.0,87,0.00,,,0.05,Wunderground v.1.15,2013-03-13 16:22:00,
2013-03-13 12:27:00,31.9,29.0,30.02,NW,313,7.0,11.0,89,0.00,,,0.05,Wunderground v.1.15,2013-03-13 16:27:00,
2013-03-13 12:33:00,30.8,28.5,30.02,NW,322,5.0,11.0,91,0.00,,,0.06,Wunderground v.1.15,2013-03-13 16:33:00,
2013-03-13 12:39:00,30.7,28.7,30.02,NNE,28,3.0,11.0,92,0.00,,,0.06,Wunderground v.1.15,2013-03-13 16:39:00,
2013-03-13 12:44:00,30.8,28.5,30.02,North,5,3.0,11.0,91,0.00,,,0.06,Wunderground v.1.15,2013-03-13 16:44:00,
2013-03-13 12:49:00,31.2,28.9,30.02,West,279,3.0,11.0,91,0.00,,,0.06,Wunderground v.1.15,2013-03-13 16:49:00,
2013-03-13 12:55:00,32.4,29.8,30.01,East,94,3.0,11.0,90,0.00,,,0.06,Wunderground v.1.15,2013-03-13 16:55:00,
2013-03-13 13:00:00,33.0,29.8,30.02,NW,321,3.0,16.0,88,0.00,,,0.06,Wunderground v.1.15,2013-03-13 17:00:00,
2013-03-13 13:06:00,33.6,29.9,30.02,NW,310,4.0,16.0,86,0.00,,,0.06,Wunderground v.1.15,2013-03-13 17:06:00,
2013-03-13 13:12:00,33.8,29.8,30.02,NW,309,5.0,16.0,85,0.00,,,0.06,Wunderground v.1.15,2013-03-13 17:12:00,
2013-03-13 13:17:00,33.6,29.3,30.02,WSW,257,5.0,16.0,84,0.00,,,0.06,Wunderground v.1.15,2013-03-13 17:17:00,
2013-03-13 13:23:00,33.3,29.0,30.02,NNW,346,5.0,16.0,84,0.00,,,0.06,Wunderground v.1.15,2013-03-13 17:23:00,
2013-03-13 13:28:00,33.7,29.4,30.01,NNW,343,5.0,16.0,84,0.00,,,0.06,Wunderground v.1.15,2013-03-13 17:28:00,
2013-03-13 13:33:00,34.4,30.6,30.01,NW,311,4.0,16.0,86,0.00,,,0.06,Wunderground v.1.15,2013-03-13 17:33:00,
2013-03-13 13:39:00,36.0,31.0,30.01,NW,315,3.0,16.0,82,0.00,,,0.06,Wunderground v.1.15,2013-03-13 17:39:00,
2013-03-13 13:44:00,36.1,28.9,30.02,WNW,293,3.0,16.0,75,0.00,,,0.06,Wunderground v.1.15,2013-03-13 17:44:00,
2013-03-13 13:49:00,35.9,27.4,30.02,SSW,205,5.0,16.0,71,0.00,,,0.06,Wunderground v.1.15,2013-03-13 17:49:00,
2013-03-13 13:54:00,36.5,28.0,30.01,WNW,284,6.0,16.0,71,0.00,,,0.06,Wunderground v.1.15,2013-03-13 17:54:00,
2013-03-13 14:00:00,36.3,27.8,30.02,NW,317,6.0,12.0,71,0.00,,,0.06,Wunderground v.1.15,2013-03-13 18:00:00,
2013-03-13 14:05:00,35.9,27.1,30.02,WNW,287,6.0,12.0,70,0.00,,,0.06,Wunderground v.1.15,2013-03-13 18:05:00,
2013-03-13 14:11:00,35.2,26.0,30.03,NNW,329,6.0,14.0,69,0.00,,,0.06,Wunderground v.1.15,2013-03-13 18:11:00,
2013-03-13 14:17:00,34.3,25.5,30.03,WSW,254,8.0,14.0,70,0.00,,,0.06,Wunderground v.1.15,2013-03-13 18:17:00,
2013-03-13 14:22:00,33.6,24.5,30.03,NNW,347,6.0,12.0,69,0.00,,,0.06,Wunderground v.1.15,2013-03-13 18:22:00,
2013-03-13 14:28:00,34.9,26.8,30.02,WSW,255,4.0,12.0,72,0.00,,,0.06,Wunderground v.1.15,2013-03-13 18:28:00,
2013-03-13 14:34:00,35.7,26.5,30.02,WSW,254,4.0,12.0,69,0.00,,,0.06,Wunderground v.1.15,2013-03-13 18:34:00,
2013-03-13 14:39:00,35.5,25.3,30.03,WSW,248,5.0,16.0,66,0.00,,,0.06,Wunderground v.1.15,2013-03-13 18:39:00,
2013-03-13 14:45:00,35.5,24.9,30.03,NNW,345,7.0,22.0,65,0.00,,,0.06,Wunderground v.1.15,2013-03-13 18:45:00,
2013-03-13 14:50:00,34.8,24.6,30.03,NW,325,6.0,22.0,66,0.00,,,0.06,Wunderground v.1.15,2013-03-13 18:50:00,
2013-03-13 14:56:00,34.4,26.6,30.05,NNW,333,8.0,8.0,73,0.00,,,0.06,Wunderground v.1.15,2013-03-13 18:56:00,
2013-03-13 15:01:00,33.1,26.4,30.04,North,360,8.0,22.0,76,0.00,,,0.06,Wunderground v.1.15,2013-03-13 19:01:00,
2013-03-13 15:07:00,32.9,25.8,30.04,NNE,30,5.0,22.0,75,0.00,,,0.06,Wunderground v.1.15,2013-03-13 19:07:00,
2013-03-13 15:12:00,32.7,25.0,30.04,WSW,237,4.0,22.0,73,0.00,,,0.06,Wunderground v.1.15,2013-03-13 19:12:00,
2013-03-13 15:17:00,32.7,25.0,30.04,NW,304,4.0,22.0,73,0.00,,,0.06,Wunderground v.1.15,2013-03-13 19:17:00,
2013-03-13 15:22:00,33.0,25.9,30.04,West,274,4.0,6.0,75,0.00,,,0.06,Wunderground v.1.15,2013-03-13 19:22:00,
2013-03-13 15:27:00,33.5,25.4,30.04,SSE,162,3.0,19.0,72,0.00,,,0.06,Wunderground v.1.15,2013-03-13 19:27:00,
2013-03-13 15:33:00,34.1,25.0,30.04,SW,232,3.0,19.0,69,0.00,,,0.06,Wunderground v.1.15,2013-03-13 19:33:00,
2013-03-13 15:38:00,34.4,25.3,30.04,NW,310,3.0,19.0,69,0.00,,,0.06,Wunderground v.1.15,2013-03-13 19:38:00,
2013-03-13 15:43:00,34.1,25.3,30.05,WNW,286,4.0,19.0,70,0.00,,,0.06,Wunderground v.1.15,2013-03-13 19:43:00,
2013-03-13 15:49:00,33.1,25.4,30.06,NW,323,8.0,19.0,73,0.00,,,0.06,Wunderground v.1.15,2013-03-13 19:49:00,
2013-03-13 15:54:00,32.5,25.8,30.06,NW,313,8.0,19.0,76,0.00,,,0.06,Wunderground v.1.15,2013-03-13 19:54:00,
2013-03-13 15:59:00,32.3,26.5,30.06,NW,325,7.0,19.0,79,0.00,,,0.06,Wunderground v.1.15,2013-03-13 19:59:00,
2013-03-13 16:05:00,32.9,26.8,30.06,WNW,297,7.0,12.0,78,0.00,,,0.06,Wunderground v.1.15,2013-03-13 20:05:00,
2013-03-13 16:11:00,33.0,25.9,30.06,WNW,298,6.0,6.0,75,0.00,,,0.06,Wunderground v.1.15,2013-03-13 20:11:00,
2013-03-13 16:17:00,34.3,26.9,30.06,NNW,328,5.0,12.0,74,0.00,,,0.06,Wunderground v.1.15,2013-03-13 20:17:00,
2013-03-13 16:22:00,35.4,26.6,30.06,WNW,302,5.0,7.0,70,0.00,,,0.06,Wunderground v.1.15,2013-03-13 20:22:00,
2013-03-13 16:28:00,34.6,26.8,30.06,NNW,338,6.0,12.0,73,0.00,,,0.06,Wunderground v.1.15,2013-03-13 20:28:00,
2013-03-13 16:33:00,34.2,25.1,30.06,NNE,17,5.0,12.0,69,0.00,,,0.06,Wunderground v.1.15,2013-03-13 20:33:00,
2013-03-13 16:39:00,34.0,23.1,30.06,WSW,244,5.0,12.0,64,0.00,,,0.06,Wunderground v.1.15,2013-03-13 20:39:00,
2013-03-13 16:45:00,34.4,23.1,30.06,NNW,333,5.0,12.0,63,0.00,,,0.06,Wunderground v.1.15,2013-03-13 20:45:00,
2013-03-13 16:50:00,34.3,22.6,30.07,NW,321,5.0,12.0,62,0.00,,,0.06,Wunderground v.1.15,2013-03-13 20:50:00,
2013-03-13 16:55:00,33.9,23.4,30.08,SSE,155,5.0,12.0,65,0.00,,,0.06,Wunderground v.1.15,2013-03-13 20:55:00,
2013-03-13 17:01:00,33.0,25.3,30.08,WNW,296,6.0,6.0,73,0.00,,,0.06,Wunderground v.1.15,2013-03-13 21:01:00,
2013-03-13 17:06:00,32.0,25.6,30.08,NW,319,7.0,16.0,77,0.00,,,0.06,Wunderground v.1.15,2013-03-13 21:06:00,
2013-03-13 17:11:00,31.0,26.4,30.09,NW,310,7.0,16.0,83,0.00,,,0.06,Wunderground v.1.15,2013-03-13 21:11:00,
2013-03-13 17:16:00,30.2,26.8,30.09,NW,316,6.0,16.0,87,0.00,,,0.06,Wunderground v.1.15,2013-03-13 21:16:00,
2013-03-13 17:22:00,29.3,26.5,30.09,WNW,290,5.0,16.0,89,0.00,,,0.06,Wunderground v.1.15,2013-03-13 21:22:00,
2013-03-13 17:27:00,29.0,26.4,30.10,North,355,4.0,16.0,90,0.00,,,0.06,Wunderground v.1.15,2013-03-13 21:27:00,
2013-03-13 17:32:00,28.7,26.4,30.10,NNW,332,5.0,16.0,91,0.00,,,0.06,Wunderground v.1.15,2013-03-13 21:32:00,
2013-03-13 17:38:00,28.4,26.4,30.10,NNW,338,5.0,16.0,92,0.00,,,0.07,Wunderground v.1.15,2013-03-13 21:38:00,
2013-03-13 17:43:00,28.3,26.3,30.10,NNW,332,4.0,16.0,92,0.00,,,0.07,Wunderground v.1.15,2013-03-13 21:43:00,
2013-03-13 17:48:00,28.3,26.5,30.10,NNW,340,3.0,16.0,93,0.00,,,0.07,Wunderground v.1.15,2013-03-13 21:48:00,
2013-03-13 17:53:00,28.4,26.6,30.10,NW,304,3.0,16.0,93,0.00,,,0.07,Wunderground v.1.15,2013-03-13 21:53:00,
2013-03-13 17:58:00,28.3,26.5,30.10,NNE,17,4.0,16.0,93,0.00,,,0.07,Wunderground v.1.15,2013-03-13 21:58:00,
2013-03-13 18:04:00,28.2,26.4,30.10,WNW,296,3.0,13.0,93,0.00,,,0.07,Wunderground v.1.15,2013-03-13 22:04:00,
2013-03-13 18:09:00,28.3,26.5,30.10,NW,321,3.0,13.0,93,0.00,,,0.07,Wunderground v.1.15,2013-03-13 22:09:00,
2013-03-13 18:14:00,28.3,26.5,30.11,NNW,332,3.0,13.0,93,0.00,,,0.07,Wunderground v.1.15,2013-03-13 22:14:00,
2013-03-13 18:20:00,28.3,26.3,30.11,NNW,328,2.0,13.0,92,0.00,,,0.07,Wunderground v.1.15,2013-03-13 22:20:00,
2013-03-13 18:25:00,28.4,26.4,30.11,NW,323,2.0,13.0,92,0.00,,,0.07,Wunderground v.1.15,2013-03-13 22:25:00,
2013-03-13 18:30:00,28.5,26.5,30.12,NW,304,4.0,13.0,92,0.00,,,0.07,Wunderground v.1.15,2013-03-13 22:30:00,
2013-03-13 18:36:00,28.3,26.3,30.13,NW,325,5.0,13.0,92,0.00,,,0.07,Wunderground v.1.15,2013-03-13 22:36:00,
2013-03-13 18:41:00,27.8,25.8,30.12,WNW,295,6.0,13.0,92,0.00,,,0.08,Wunderground v.1.15,2013-03-13 22:41:00,
2013-03-13 18:47:00,27.4,25.4,30.12,WNW,303,5.0,13.0,92,0.00,,,0.08,Wunderground v.1.15,2013-03-13 22:47:00,
2013-03-13 18:52:00,27.1,25.1,30.13,WNW,294,5.0,13.0,92,0.00,,,0.08,Wunderground v.1.15,2013-03-13 22:52:00,
2013-03-13 18:58:00,27.0,25.0,30.13,NNW,345,4.0,13.0,92,0.00,,,0.08,Wunderground v.1.15,2013-03-13 22:58:00,
2013-03-13 19:04:00,27.0,24.7,30.13,West,281,3.0,10.0,91,0.00,,,0.08,Wunderground v.1.15,2013-03-13 23:04:00,
2013-03-13 19:09:00,26.9,24.6,30.13,West,260,3.0,10.0,91,0.00,,,0.08,Wunderground v.1.15,2013-03-13 23:09:00,
2013-03-13 19:14:00,27.0,24.5,30.14,WNW,301,3.0,10.0,90,0.00,,,0.08,Wunderground v.1.15,2013-03-13 23:14:00,
2013-03-13 19:19:00,27.0,24.5,30.14,NNW,343,3.0,14.0,90,0.00,,,0.08,Wunderground v.1.15,2013-03-13 23:19:00,
2013-03-13 19:25:00,27.1,24.0,30.14,SSE,165,2.0,14.0,88,0.00,,,0.08,Wunderground v.1.15,2013-03-13 23:25:00,
2013-03-13 19:30:00,27.2,23.8,30.14,North,360,1.0,14.0,87,0.00,,,0.08,Wunderground v.1.15,2013-03-13 23:30:00,
2013-03-13 19:36:00,27.1,23.5,30.14,North,360,1.0,14.0,86,0.00,,,0.08,Wunderground v.1.15,2013-03-13 23:36:00,
2013-03-13 19:43:00,27.1,23.5,30.15,NNW,345,2.0,14.0,86,0.00,,,0.08,Wunderground v.1.15,2013-03-13 23:43:00,
2013-03-13 19:49:00,27.2,23.6,30.15,NNW,335,2.0,14.0,86,0.00,,,0.08,Wunderground v.1.15,2013-03-13 23:49:00,
2013-03-13 19:54:00,27.2,23.6,30.15,NW,321,2.0,14.0,86,0.00,,,0.08,Wunderground v.1.15,2013-03-13 23:54:00,
2013-03-13 19:59:00,27.2,23.6,30.15,WSW,248,2.0,14.0,86,0.00,,,0.08,Wunderground v.1.15,2013-03-13 23:59:00,
2013-03-13 20:05:00,27.3,23.7,30.15,NW,308,1.0,8.0,86,0.00,,,0.08,Wunderground v.1.15,2013-03-14 00:05:00,
2013-03-13 20:10:00,27.4,24.0,30.15,WNW,290,2.0,8.0,87,0.00,,,0.08,Wunderground v.1.15,2013-03-14 00:10:00,
2013-03-13 20:16:00,27.5,24.1,30.16,NW,309,2.0,8.0,87,0.00,,,0.08,Wunderground v.1.15,2013-03-14 00:16:00,
2013-03-13 20:21:00,27.5,24.1,30.16,West,267,2.0,3.0,87,0.00,,,0.08,Wunderground v.1.15,2013-03-14 00:21:00,
2013-03-13 20:27:00,27.6,24.2,30.16,NW,317,2.0,8.0,87,0.00,,,0.08,Wunderground v.1.15,2013-03-14 00:27:00,
2013-03-13 20:32:00,27.6,24.5,30.16,WNW,296,2.0,8.0,88,0.00,,,0.08,Wunderground v.1.15,2013-03-14 00:32:00,
2013-03-13 20:37:00,27.6,24.5,30.16,NW,320,2.0,8.0,88,0.00,,,0.08,Wunderground v.1.15,2013-03-14 00:37:00,
2013-03-13 20:42:00,27.5,24.7,30.16,West,281,3.0,8.0,89,0.00,,,0.08,Wunderground v.1.15,2013-03-14 00:42:00,
2013-03-13 20:47:00,27.5,24.4,30.16,WNW,296,3.0,8.0,88,0.00,,,0.08,Wunderground v.1.15,2013-03-14 00:47:00,
2013-03-13 20:53:00,27.5,24.4,30.17,NW,314,2.0,8.0,88,0.00,,,0.08,Wunderground v.1.15,2013-03-14 00:53:00,
2013-03-13 20:58:00,27.5,24.1,30.16,NE,36,2.0,8.0,87,0.00,,,0.08,Wunderground v.1.15,2013-03-14 00:58:00,
2013-03-13 21:04:00,27.5,23.9,30.16,WNW,297,2.0,8.0,86,0.00,,,0.08,Wunderground v.1.15,2013-03-14 01:04:00,
2013-03-13 21:10:00,27.6,23.7,30.17,North,355,2.0,2.0,85,0.00,,,0.08,Wunderground v.1.15,2013-03-14 01:10:00,
2013-03-13 21:15:00,27.6,23.4,30.17,SSW,202,2.0,8.0,84,0.00,,,0.08,Wunderground v.1.15,2013-03-14 01:15:00,
2013-03-13 21:20:00,27.6,23.4,30.17,NNW,330,2.0,8.0,84,0.00,,,0.08,Wunderground v.1.15,2013-03-14 01:20:00,
2013-03-13 21:26:00,27.7,23.5,30.16,NW,326,3.0,8.0,84,0.00,,,0.08,Wunderground v.1.15,2013-03-14 01:26:00,
2013-03-13 21:32:00,27.6,23.1,30.16,WNW,292,3.0,8.0,83,0.00,,,0.08,Wunderground v.1.15,2013-03-14 01:32:00,
2013-03-13 21:37:00,27.6,22.8,30.17,NW,325,3.0,8.0,82,0.00,,,0.08,Wunderground v.1.15,2013-03-14 01:37:00,
2013-03-13 21:43:00,27.7,22.9,30.17,WNW,290,4.0,8.0,82,0.00,,,0.08,Wunderground v.1.15,2013-03-14 01:43:00,
2013-03-13 21:48:00,27.7,22.3,30.17,NW,314,4.0,8.0,80,0.00,,,0.08,Wunderground v.1.15,2013-03-14 01:48:00,
2013-03-13 21:54:00,27.7,22.3,30.17,NW,323,4.0,8.0,80,0.00,,,0.08,Wunderground v.1.15,2013-03-14 01:54:00,
2013-03-13 22:01:00,27.7,22.3,30.17,NNW,328,3.0,3.0,80,0.00,,,0.08,Wunderground v.1.15,2013-03-14 02:01:00,
2013-03-13 22:06:00,27.7,22.3,30.17,WNW,301,3.0,9.0,80,0.00,,,0.08,Wunderground v.1.15,2013-03-14 02:06:00,
2013-03-13 22:12:00,27.7,22.3,30.17,NNW,333,2.0,9.0,80,0.00,,,0.08,Wunderground v.1.15,2013-03-14 02:12:00,
2013-03-13 22:17:00,27.6,22.5,30.18,NNW,342,2.0,9.0,81,0.00,,,0.08,Wunderground v.1.15,2013-03-14 02:17:00,
2013-03-13 22:23:00,27.6,22.5,30.18,NW,321,3.0,9.0,81,0.00,,,0.08,Wunderground v.1.15,2013-03-14 02:23:00,
2013-03-13 22:29:00,27.5,22.4,30.18,NNW,348,3.0,9.0,81,0.00,,,0.08,Wunderground v.1.15,2013-03-14 02:29:00,
2013-03-13 22:34:00,27.5,22.7,30.18,NNW,335,3.0,9.0,82,0.00,,,0.08,Wunderground v.1.15,2013-03-14 02:34:00,
2013-03-13 22:39:00,27.5,22.4,30.18,NW,323,3.0,9.0,81,0.00,,,0.08,Wunderground v.1.15,2013-03-14 02:39:00,
2013-03-13 22:44:00,27.5,22.4,30.18,NNW,327,3.0,11.0,81,0.00,,,0.08,Wunderground v.1.15,2013-03-14 02:44:00,
2013-03-13 22:49:00,27.5,22.4,30.19,NW,311,4.0,11.0,81,0.00,,,0.08,Wunderground v.1.15,2013-03-14 02:49:00,
2013-03-13 22:54:00,27.4,22.0,30.19,NNW,340,5.0,11.0,80,0.00,,,0.08,Wunderground v.1.15,2013-03-14 02:54:00,
2013-03-13 22:59:00,27.4,22.3,30.19,NNW,340,5.0,11.0,81,0.00,,,0.08,Wunderground v.1.15,2013-03-14 02:59:00,
2013-03-13 23:05:00,27.4,22.0,30.19,NW,310,4.0,8.0,80,0.00,,,0.08,Wunderground v.1.15,2013-03-14 03:05:00,
2013-03-13 23:10:00,27.4,22.3,30.19,NW,315,3.0,3.0,81,0.00,,,0.08,Wunderground v.1.15,2013-03-14 03:10:00,
2013-03-13 23:15:00,27.4,22.3,30.19,SSW,209,4.0,8.0,81,0.00,,,0.08,Wunderground v.1.15,2013-03-14 03:15:00,
2013-03-13 23:21:00,27.4,22.0,30.19,WNW,303,5.0,8.0,80,0.00,,,0.08,Wunderground v.1.15,2013-03-14 03:21:00,
2013-03-13 23:27:00,27.3,21.9,30.19,NW,317,3.0,8.0,80,0.00,,,0.08,Wunderground v.1.15,2013-03-14 03:27:00,
2013-03-13 23:32:00,27.3,21.9,30.19,WNW,296,3.0,8.0,80,0.00,,,0.08,Wunderground v.1.15,2013-03-14 03:32:00,
2013-03-13 23:37:00,27.3,22.2,30.19,NW,319,3.0,8.0,81,0.00,,,0.08,Wunderground v.1.15,2013-03-14 03:37:00,
2013-03-13 23:42:00,27.3,22.2,30.19,NW,317,3.0,8.0,81,0.00,,,0.08,Wunderground v.1.15,2013-03-14 03:42:00,
2013-03-13 23:48:00,27.3,22.2,30.19,NNW,337,3.0,8.0,81,0.00,,,0.08,Wunderground v.1.15,2013-03-14 03:48:00,
2013-03-13 23:53:00,27.2,22.4,30.20,WNW,291,3.0,8.0,82,0.00,,,0.08,Wunderground v.1.15,2013-03-14 03:53:00,
2013-03-13 23:58:00,27.1,22.0,30.19,NW,319,3.0,9.0,81,0.00,,,0.08,Wunderground v.1.15,2013-03-14 03:58:00,